Year,Month,Day,Hour,Minute,Value (Times are PST for temperature in C)
2009,06,15,00,00,13.70
2009,06,15,00,01,13.70
2009,06,15,00,02,13.70
2009,06,15,00,03,13.60
2009,06,15,00,04,13.60
2009,06,15,00,05,13.60
2009,06,15,00,06,13.50
2009,06,15,00,07,13.50
2009,06,15,00,08,13.50
2009,06,15,00,09,13.40
2009,06,15,00,10,13.40
2009,06,15,00,11,13.40
2009,06,15,00,12,13.40
2009,06,15,00,13,13.30
2009,06,15,00,14,13.30
2009,06,15,00,15,13.30
2009,06,15,00,16,13.30
2009,06,15,00,17,13.30
2009,06,15,00,18,13.30
2009,06,15,00,19,13.30
2009,06,15,00,20,13.30
2009,06,15,00,21,13.30
2009,06,15,00,22,13.30
2009,06,15,00,23,13.30
2009,06,15,00,24,13.30
2009,06,15,00,25,13.30
2009,06,15,00,26,13.30
2009,06,15,00,27,13.30
2009,06,15,00,28,13.20
2009,06,15,00,29,13.20
2009,06,15,00,30,13.20
2009,06,15,00,31,13.20
2009,06,15,00,32,13.20
2009,06,15,00,33,13.10
2009,06,15,00,34,13.10
2009,06,15,00,35,13.10
2009,06,15,00,36,13.10
2009,06,15,00,37,13.00
2009,06,15,00,38,13.00
2009,06,15,00,39,13.00
2009,06,15,00,40,13.00
2009,06,15,00,41,12.90
2009,06,15,00,42,12.90
2009,06,15,00,43,12.90
2009,06,15,00,44,12.90
2009,06,15,00,45,12.90
2009,06,15,00,46,12.90
2009,06,15,00,47,12.90
2009,06,15,00,48,12.90
2009,06,15,00,49,12.90
2009,06,15,00,50,12.90
2009,06,15,00,51,12.90
2009,06,15,00,52,12.90
2009,06,15,00,53,12.90
2009,06,15,00,54,12.90
2009,06,15,00,55,12.90
2009,06,15,00,56,12.90
2009,06,15,00,57,12.90
2009,06,15,00,58,12.90
2009,06,15,00,59,12.80
2009,06,15,01,00,12.80
2009,06,15,01,01,12.80
2009,06,15,01,02,12.80
2009,06,15,01,03,12.80
2009,06,15,01,04,12.80
2009,06,15,01,05,12.80
2009,06,15,01,06,12.80
2009,06,15,01,07,12.70
2009,06,15,01,08,12.70
2009,06,15,01,09,12.70
2009,06,15,01,10,12.70
2009,06,15,01,11,12.70
2009,06,15,01,12,12.70
2009,06,15,01,13,12.70
2009,06,15,01,14,12.70
2009,06,15,01,15,12.70
2009,06,15,01,16,12.70
2009,06,15,01,17,12.70
2009,06,15,01,18,12.70
2009,06,15,01,19,12.70
2009,06,15,01,20,12.70
2009,06,15,01,21,12.70
2009,06,15,01,22,12.70
2009,06,15,01,23,12.70
2009,06,15,01,24,12.70
2009,06,15,01,25,12.70
2009,06,15,01,26,12.70
2009,06,15,01,27,12.70
2009,06,15,01,28,12.70
2009,06,15,01,29,12.70
2009,06,15,01,30,12.70
2009,06,15,01,31,12.70
2009,06,15,01,32,12.70
2009,06,15,01,33,12.70
2009,06,15,01,34,12.70
2009,06,15,01,35,12.60
2009,06,15,01,36,12.60
2009,06,15,01,37,12.60
2009,06,15,01,38,12.60
2009,06,15,01,39,12.50
2009,06,15,01,40,12.50
2009,06,15,01,41,12.50
2009,06,15,01,42,12.50
2009,06,15,01,43,12.40
2009,06,15,01,44,12.40
2009,06,15,01,45,12.40
2009,06,15,01,46,12.40
2009,06,15,01,47,12.30
2009,06,15,01,48,12.30
2009,06,15,01,49,12.30
2009,06,15,01,50,12.30
2009,06,15,01,51,12.20
2009,06,15,01,52,12.20
2009,06,15,01,53,12.20
2009,06,15,01,54,12.20
2009,06,15,01,55,12.10
2009,06,15,01,56,12.10
2009,06,15,01,57,12.10
2009,06,15,01,58,12.10
2009,06,15,01,59,12.10
2009,06,15,02,00,12.10
2009,06,15,02,01,12.00
2009,06,15,02,02,12.00
2009,06,15,02,03,12.00
2009,06,15,02,04,12.00
2009,06,15,02,05,12.00
2009,06,15,02,06,11.90
2009,06,15,02,07,11.90
2009,06,15,02,08,11.90
2009,06,15,02,09,11.90
2009,06,15,02,10,11.90
2009,06,15,02,11,11.90
2009,06,15,02,12,11.90
2009,06,15,02,13,11.90
2009,06,15,02,14,11.90
2009,06,15,02,15,11.90
2009,06,15,02,16,11.90
2009,06,15,02,17,11.90
2009,06,15,02,18,11.90
2009,06,15,02,19,11.90
2009,06,15,02,20,11.90
2009,06,15,02,21,11.90
2009,06,15,02,22,11.80
2009,06,15,02,23,11.80
2009,06,15,02,24,11.80
2009,06,15,02,25,11.80
2009,06,15,02,26,11.80
2009,06,15,02,27,11.80
2009,06,15,02,28,11.90
2009,06,15,02,29,11.80
2009,06,15,02,30,11.80
2009,06,15,02,31,11.80
2009,06,15,02,32,11.80
2009,06,15,02,33,11.80
2009,06,15,02,34,11.80
2009,06,15,02,35,11.80
2009,06,15,02,36,11.80
2009,06,15,02,37,11.80
2009,06,15,02,38,11.80
2009,06,15,02,39,11.80
2009,06,15,02,40,11.80
2009,06,15,02,41,11.80
2009,06,15,02,42,11.80
2009,06,15,02,43,11.80
2009,06,15,02,44,11.80
2009,06,15,02,45,11.80
2009,06,15,02,46,11.80
2009,06,15,02,47,11.80
2009,06,15,02,48,11.80
2009,06,15,02,49,11.80
2009,06,15,02,50,11.80
2009,06,15,02,51,11.80
2009,06,15,02,52,11.80
2009,06,15,02,53,11.80
2009,06,15,02,54,11.80
2009,06,15,02,55,11.80
2009,06,15,02,56,11.80
2009,06,15,02,57,11.80
2009,06,15,02,58,11.80
2009,06,15,02,59,11.80
2009,06,15,03,00,11.80
2009,06,15,03,01,11.80
2009,06,15,03,02,11.80
2009,06,15,03,03,11.80
2009,06,15,03,04,11.80
2009,06,15,03,05,11.80
2009,06,15,03,06,11.80
2009,06,15,03,07,11.80
2009,06,15,03,08,11.80
2009,06,15,03,09,11.90
2009,06,15,03,10,11.90
2009,06,15,03,11,11.90
2009,06,15,03,12,11.90
2009,06,15,03,13,11.90
2009,06,15,03,14,11.90
2009,06,15,03,15,11.90
2009,06,15,03,16,11.90
2009,06,15,03,17,11.90
2009,06,15,03,18,11.90
2009,06,15,03,19,11.90
2009,06,15,03,20,11.90
2009,06,15,03,21,12.00
2009,06,15,03,22,12.00
2009,06,15,03,23,12.00
2009,06,15,03,24,12.00
2009,06,15,03,25,12.10
2009,06,15,03,26,12.10
2009,06,15,03,27,12.10
2009,06,15,03,28,12.10
2009,06,15,03,29,12.10
2009,06,15,03,30,12.10
2009,06,15,03,31,12.10
2009,06,15,03,32,12.20
2009,06,15,03,33,12.20
2009,06,15,03,34,12.20
2009,06,15,03,35,12.20
2009,06,15,03,36,12.20
2009,06,15,03,37,12.20
2009,06,15,03,38,12.20
2009,06,15,03,39,12.20
2009,06,15,03,40,12.20
2009,06,15,03,41,12.30
2009,06,15,03,42,12.30
2009,06,15,03,43,12.30
2009,06,15,03,44,12.30
2009,06,15,03,45,12.30
2009,06,15,03,46,12.30
2009,06,15,03,47,12.30
2009,06,15,03,48,12.40
2009,06,15,03,49,12.40
2009,06,15,03,50,12.40
2009,06,15,03,51,12.40
2009,06,15,03,52,12.40
2009,06,15,03,53,12.40
2009,06,15,03,54,12.40
2009,06,15,03,55,12.40
2009,06,15,03,56,12.40
2009,06,15,03,57,12.40
2009,06,15,03,58,12.40
2009,06,15,03,59,12.50
2009,06,15,04,00,12.50
2009,06,15,04,01,12.50
2009,06,15,04,02,12.50
2009,06,15,04,03,12.50
2009,06,15,04,04,12.50
2009,06,15,04,05,12.50
2009,06,15,04,06,12.50
2009,06,15,04,07,12.50
2009,06,15,04,08,12.50
2009,06,15,04,09,12.50
2009,06,15,04,10,12.50
2009,06,15,04,11,12.50
2009,06,15,04,12,12.60
2009,06,15,04,13,12.60
2009,06,15,04,14,12.60
2009,06,15,04,15,12.60
2009,06,15,04,16,12.60
2009,06,15,04,17,12.60
2009,06,15,04,18,12.60
2009,06,15,04,19,12.60
2009,06,15,04,20,12.60
2009,06,15,04,21,12.60
2009,06,15,04,22,12.60
2009,06,15,04,23,12.60
2009,06,15,04,24,12.60
2009,06,15,04,25,12.70
2009,06,15,04,26,12.70
2009,06,15,04,27,12.70
2009,06,15,04,28,12.70
2009,06,15,04,29,12.70
2009,06,15,04,30,12.70
2009,06,15,04,31,12.70
2009,06,15,04,32,12.70
2009,06,15,04,33,12.70
2009,06,15,04,34,12.70
2009,06,15,04,35,12.70
2009,06,15,04,36,12.70
2009,06,15,04,37,12.70
2009,06,15,04,38,12.70
2009,06,15,04,39,12.70
2009,06,15,04,40,12.70
2009,06,15,04,41,12.70
2009,06,15,04,42,12.70
2009,06,15,04,43,12.70
2009,06,15,04,44,12.70
2009,06,15,04,45,12.70
2009,06,15,04,46,12.70
2009,06,15,04,47,12.70
2009,06,15,04,48,12.80
2009,06,15,04,49,12.80
2009,06,15,04,50,12.80
2009,06,15,04,51,12.80
2009,06,15,04,52,12.80
2009,06,15,04,53,12.80
2009,06,15,04,54,12.80
2009,06,15,04,55,12.90
2009,06,15,04,56,12.90
2009,06,15,04,57,12.90
2009,06,15,04,58,12.90
2009,06,15,04,59,12.90
2009,06,15,05,00,12.90
2009,06,15,05,01,12.90
2009,06,15,05,02,12.90
2009,06,15,05,03,12.90
2009,06,15,05,04,12.90
2009,06,15,05,05,12.90
2009,06,15,05,06,12.90
2009,06,15,05,07,12.80
2009,06,15,05,08,12.80
2009,06,15,05,09,12.80
2009,06,15,05,10,12.80
2009,06,15,05,11,12.80
2009,06,15,05,12,12.80
2009,06,15,05,13,12.80
2009,06,15,05,14,12.80
2009,06,15,05,15,12.70
2009,06,15,05,16,12.70
2009,06,15,05,17,12.70
2009,06,15,05,18,12.70
2009,06,15,05,19,12.70
2009,06,15,05,20,12.70
2009,06,15,05,21,12.70
2009,06,15,05,22,12.60
2009,06,15,05,23,12.60
2009,06,15,05,24,12.60
2009,06,15,05,25,12.60
2009,06,15,05,26,12.60
2009,06,15,05,27,12.50
2009,06,15,05,28,12.50
2009,06,15,05,29,12.40
2009,06,15,05,30,12.40
2009,06,15,05,31,12.40
2009,06,15,05,32,12.40
2009,06,15,05,33,12.40
2009,06,15,05,34,12.40
2009,06,15,05,35,12.30
2009,06,15,05,36,12.30
2009,06,15,05,37,12.30
2009,06,15,05,38,12.30
2009,06,15,05,39,12.30
2009,06,15,05,40,12.30
2009,06,15,05,41,12.30
2009,06,15,05,42,12.30
2009,06,15,05,43,12.30
2009,06,15,05,44,12.30
2009,06,15,05,45,12.30
2009,06,15,05,46,12.30
2009,06,15,05,47,12.30
2009,06,15,05,48,12.40
2009,06,15,05,49,12.40
2009,06,15,05,50,12.40
2009,06,15,05,51,12.40
2009,06,15,05,52,12.40
2009,06,15,05,53,12.40
2009,06,15,05,54,12.40
2009,06,15,05,55,12.40
2009,06,15,05,56,12.40
2009,06,15,05,57,12.50
2009,06,15,05,58,12.50
2009,06,15,05,59,12.50
2009,06,15,06,00,12.50
2009,06,15,06,01,12.50
2009,06,15,06,02,12.50
2009,06,15,06,03,12.60
2009,06,15,06,04,12.60
2009,06,15,06,05,12.60
2009,06,15,06,06,12.60
2009,06,15,06,07,12.60
2009,06,15,06,08,12.60
2009,06,15,06,09,12.60
2009,06,15,06,10,12.70
2009,06,15,06,11,12.70
2009,06,15,06,12,12.70
2009,06,15,06,13,12.70
2009,06,15,06,14,12.70
2009,06,15,06,15,12.70
2009,06,15,06,16,12.70
2009,06,15,06,17,12.80
2009,06,15,06,18,12.80
2009,06,15,06,19,12.80
2009,06,15,06,20,12.80
2009,06,15,06,21,12.80
2009,06,15,06,22,12.90
2009,06,15,06,23,12.90
2009,06,15,06,24,12.90
2009,06,15,06,25,13.00
2009,06,15,06,26,13.00
2009,06,15,06,27,13.10
2009,06,15,06,28,13.10
2009,06,15,06,29,13.10
2009,06,15,06,30,13.20
2009,06,15,06,31,13.20
2009,06,15,06,32,13.20
2009,06,15,06,33,13.20
2009,06,15,06,34,13.20
2009,06,15,06,35,13.20
2009,06,15,06,36,13.20
2009,06,15,06,37,13.30
2009,06,15,06,38,13.30
2009,06,15,06,39,13.30
2009,06,15,06,40,13.30
2009,06,15,06,41,13.30
2009,06,15,06,42,13.30
2009,06,15,06,43,13.40
2009,06,15,06,44,13.40
2009,06,15,06,45,13.40
2009,06,15,06,46,13.40
2009,06,15,06,47,13.40
2009,06,15,06,48,13.50
2009,06,15,06,49,13.50
2009,06,15,06,50,13.50
2009,06,15,06,51,13.50
2009,06,15,06,52,13.40
2009,06,15,06,53,13.40
2009,06,15,06,54,13.40
2009,06,15,06,55,13.40
2009,06,15,06,56,13.40
2009,06,15,06,57,13.40
2009,06,15,06,58,13.40
2009,06,15,06,59,13.40
2009,06,15,07,00,13.40
2009,06,15,07,01,13.40
2009,06,15,07,02,13.50
2009,06,15,07,03,13.50
2009,06,15,07,04,13.50
2009,06,15,07,05,13.60
2009,06,15,07,06,13.50
2009,06,15,07,07,13.50
2009,06,15,07,08,13.60
2009,06,15,07,09,13.60
2009,06,15,07,10,13.60
2009,06,15,07,11,13.60
2009,06,15,07,12,13.60
2009,06,15,07,13,13.70
2009,06,15,07,14,13.70
2009,06,15,07,15,13.70
2009,06,15,07,16,13.70
2009,06,15,07,17,13.70
2009,06,15,07,18,13.70
2009,06,15,07,19,13.70
2009,06,15,07,20,13.70
2009,06,15,07,21,13.70
2009,06,15,07,22,13.80
2009,06,15,07,23,13.80
2009,06,15,07,24,13.80
2009,06,15,07,25,13.80
2009,06,15,07,26,13.80
2009,06,15,07,27,13.80
2009,06,15,07,28,13.80
2009,06,15,07,29,13.80
2009,06,15,07,30,13.80
2009,06,15,07,31,13.80
2009,06,15,07,32,13.90
2009,06,15,07,33,13.90
2009,06,15,07,34,13.90
2009,06,15,07,35,13.90
2009,06,15,07,36,14.00
2009,06,15,07,37,14.00
2009,06,15,07,38,14.00
2009,06,15,07,39,14.00
2009,06,15,07,40,14.10
2009,06,15,07,41,14.10
2009,06,15,07,42,14.00
2009,06,15,07,43,14.00
2009,06,15,07,44,14.00
2009,06,15,07,45,14.00
2009,06,15,07,46,14.00
2009,06,15,07,47,14.00
2009,06,15,07,48,14.10
2009,06,15,07,49,14.10
2009,06,15,07,50,14.10
2009,06,15,07,51,14.10
2009,06,15,07,52,14.20
2009,06,15,07,53,14.20
2009,06,15,07,54,14.20
2009,06,15,07,55,14.30
2009,06,15,07,56,14.30
2009,06,15,07,57,14.30
2009,06,15,07,58,14.30
2009,06,15,07,59,14.30
2009,06,15,08,00,14.30
2009,06,15,08,01,14.30
2009,06,15,08,02,14.30
2009,06,15,08,03,14.30
2009,06,15,08,04,14.30
2009,06,15,08,05,14.40
2009,06,15,08,06,14.40
2009,06,15,08,07,14.50
2009,06,15,08,08,14.60
2009,06,15,08,09,14.60
2009,06,15,08,10,14.70
2009,06,15,08,11,14.80
2009,06,15,08,12,15.00
2009,06,15,08,13,15.00
2009,06,15,08,14,15.10
2009,06,15,08,15,15.20
2009,06,15,08,16,15.40
2009,06,15,08,17,15.40
2009,06,15,08,18,15.40
2009,06,15,08,19,15.50
2009,06,15,08,20,15.50
2009,06,15,08,21,15.50
2009,06,15,08,22,15.50
2009,06,15,08,23,15.60
2009,06,15,08,24,15.60
2009,06,15,08,25,15.60
2009,06,15,08,26,15.60
2009,06,15,08,27,15.60
2009,06,15,08,28,15.70
2009,06,15,08,29,15.70
2009,06,15,08,30,15.80
2009,06,15,08,31,15.80
2009,06,15,08,32,15.90
2009,06,15,08,33,15.80
2009,06,15,08,34,15.70
2009,06,15,08,35,15.70
2009,06,15,08,36,15.80
2009,06,15,08,37,15.80
2009,06,15,08,38,15.80
2009,06,15,08,39,15.80
2009,06,15,08,40,15.80
2009,06,15,08,41,15.80
2009,06,15,08,42,15.90
2009,06,15,08,43,15.90
2009,06,15,08,44,15.90
2009,06,15,08,45,15.90
2009,06,15,08,46,16.00
2009,06,15,08,47,16.00
2009,06,15,08,48,16.00
2009,06,15,08,49,16.10
2009,06,15,08,50,16.10
2009,06,15,08,51,16.10
2009,06,15,08,52,16.20
2009,06,15,08,53,16.20
2009,06,15,08,54,16.30
2009,06,15,08,55,16.30
2009,06,15,08,56,16.30
2009,06,15,08,57,16.40
2009,06,15,08,58,16.40
2009,06,15,08,59,16.40
2009,06,15,09,00,16.40
2009,06,15,09,01,16.40
2009,06,15,09,02,16.40
2009,06,15,09,03,16.40
2009,06,15,09,04,16.40
2009,06,15,09,05,16.30
2009,06,15,09,06,16.30
2009,06,15,09,07,16.20
2009,06,15,09,08,16.00
2009,06,15,09,09,16.00
2009,06,15,09,10,15.90
2009,06,15,09,11,15.90
2009,06,15,09,12,15.90
2009,06,15,09,13,15.90
2009,06,15,09,14,15.90
2009,06,15,09,15,15.80
2009,06,15,09,16,15.70
2009,06,15,09,17,15.60
2009,06,15,09,18,15.50
2009,06,15,09,19,15.50
2009,06,15,09,20,15.50
2009,06,15,09,21,15.60
2009,06,15,09,22,15.60
2009,06,15,09,23,15.70
2009,06,15,09,24,15.70
2009,06,15,09,25,15.70
2009,06,15,09,26,15.70
2009,06,15,09,27,15.70
2009,06,15,09,28,15.70
2009,06,15,09,29,15.70
2009,06,15,09,30,15.70
2009,06,15,09,31,15.70
2009,06,15,09,32,15.70
2009,06,15,09,33,15.60
2009,06,15,09,34,15.60
2009,06,15,09,35,15.50
2009,06,15,09,36,15.40
2009,06,15,09,37,15.40
2009,06,15,09,38,15.30
2009,06,15,09,39,15.30
2009,06,15,09,40,15.30
2009,06,15,09,41,15.30
2009,06,15,09,42,15.30
2009,06,15,09,43,15.30
2009,06,15,09,44,15.30
2009,06,15,09,45,15.30
2009,06,15,09,46,15.40
2009,06,15,09,47,15.50
2009,06,15,09,48,15.50
2009,06,15,09,49,15.40
2009,06,15,09,50,15.30
2009,06,15,09,51,15.30
2009,06,15,09,52,15.30
2009,06,15,09,53,15.30
2009,06,15,09,54,15.30
2009,06,15,09,55,15.30
2009,06,15,09,56,15.30
2009,06,15,09,57,15.30
2009,06,15,09,58,15.40
2009,06,15,09,59,15.40
2009,06,15,10,00,15.40
2009,06,15,10,01,15.30
2009,06,15,10,02,15.30
2009,06,15,10,03,15.30
2009,06,15,10,04,15.30
2009,06,15,10,05,15.30
2009,06,15,10,06,15.30
2009,06,15,10,07,15.30
2009,06,15,10,08,15.30
2009,06,15,10,09,15.10
2009,06,15,10,10,15.00
2009,06,15,10,11,15.00
2009,06,15,10,12,15.00
2009,06,15,10,13,15.00
2009,06,15,10,14,15.00
2009,06,15,10,15,15.00
2009,06,15,10,16,15.00
2009,06,15,10,17,15.00
2009,06,15,10,18,15.00
2009,06,15,10,19,15.00
2009,06,15,10,20,15.00
2009,06,15,10,21,15.20
2009,06,15,10,22,15.30
2009,06,15,10,23,15.40
2009,06,15,10,24,15.40
2009,06,15,10,25,15.40
2009,06,15,10,26,15.40
2009,06,15,10,27,15.50
2009,06,15,10,28,15.60
2009,06,15,10,29,15.70
2009,06,15,10,30,15.70
2009,06,15,10,31,15.80
2009,06,15,10,32,15.90
2009,06,15,10,33,15.90
2009,06,15,10,34,15.90
2009,06,15,10,35,15.90
2009,06,15,10,36,15.90
2009,06,15,10,37,16.00
2009,06,15,10,38,16.00
2009,06,15,10,39,15.90
2009,06,15,10,40,15.90
2009,06,15,10,41,16.00
2009,06,15,10,42,16.00
2009,06,15,10,43,16.00
2009,06,15,10,44,16.00
2009,06,15,10,45,16.10
2009,06,15,10,46,16.20
2009,06,15,10,47,16.20
2009,06,15,10,48,16.30
2009,06,15,10,49,16.40
2009,06,15,10,50,16.50
2009,06,15,10,51,16.40
2009,06,15,10,52,16.30
2009,06,15,10,53,16.10
2009,06,15,10,54,16.00
2009,06,15,10,55,15.90
2009,06,15,10,56,16.00
2009,06,15,10,57,16.10
2009,06,15,10,58,16.30
2009,06,15,10,59,16.30
2009,06,15,11,00,16.30
2009,06,15,11,01,16.40
2009,06,15,11,02,16.50
2009,06,15,11,03,16.60
2009,06,15,11,04,16.60
2009,06,15,11,05,16.60
2009,06,15,11,06,16.60
2009,06,15,11,07,16.70
2009,06,15,11,08,16.80
2009,06,15,11,09,16.90
2009,06,15,11,10,16.80
2009,06,15,11,11,16.70
2009,06,15,11,12,16.60
2009,06,15,11,13,16.60
2009,06,15,11,14,16.60
2009,06,15,11,15,16.70
2009,06,15,11,16,16.70
2009,06,15,11,17,16.80
2009,06,15,11,18,16.90
2009,06,15,11,19,16.90
2009,06,15,11,20,16.80
2009,06,15,11,21,16.80
2009,06,15,11,22,16.70
2009,06,15,11,23,16.70
2009,06,15,11,24,16.70
2009,06,15,11,25,16.80
2009,06,15,11,26,16.80
2009,06,15,11,27,16.90
2009,06,15,11,28,17.00
2009,06,15,11,29,17.10
2009,06,15,11,30,17.20
2009,06,15,11,31,17.30
2009,06,15,11,32,17.40
2009,06,15,11,33,17.50
2009,06,15,11,34,17.60
2009,06,15,11,35,17.60
2009,06,15,11,36,17.50
2009,06,15,11,37,17.40
2009,06,15,11,38,17.20
2009,06,15,11,39,17.10
2009,06,15,11,40,16.90
2009,06,15,11,41,16.80
2009,06,15,11,42,16.80
2009,06,15,11,43,16.90
2009,06,15,11,44,17.00
2009,06,15,11,45,17.10
2009,06,15,11,46,17.20
2009,06,15,11,47,17.30
2009,06,15,11,48,17.30
2009,06,15,11,49,17.40
2009,06,15,11,50,17.50
2009,06,15,11,51,17.50
2009,06,15,11,52,17.50
2009,06,15,11,53,17.40
2009,06,15,11,54,17.30
2009,06,15,11,55,17.20
2009,06,15,11,56,17.20
2009,06,15,11,57,17.20
2009,06,15,11,58,17.20
2009,06,15,11,59,17.30
2009,06,15,12,00,17.50
2009,06,15,12,01,17.70
2009,06,15,12,02,17.80
2009,06,15,12,03,18.00
2009,06,15,12,04,18.00
2009,06,15,12,05,18.00
2009,06,15,12,06,17.90
2009,06,15,12,07,17.90
2009,06,15,12,08,18.00
2009,06,15,12,09,18.10
2009,06,15,12,10,18.20
2009,06,15,12,11,18.30
2009,06,15,12,12,18.30
2009,06,15,12,13,18.40
2009,06,15,12,14,18.50
2009,06,15,12,15,18.50
2009,06,15,12,16,18.60
2009,06,15,12,17,18.60
2009,06,15,12,18,18.70
2009,06,15,12,19,18.80
2009,06,15,12,20,18.70
2009,06,15,12,21,18.70
2009,06,15,12,22,18.90
2009,06,15,12,23,19.10
2009,06,15,12,24,19.20
2009,06,15,12,25,19.40
2009,06,15,12,26,19.50
2009,06,15,12,27,19.50
2009,06,15,12,28,19.40
2009,06,15,12,29,19.40
2009,06,15,12,30,19.30
2009,06,15,12,31,19.20
2009,06,15,12,32,19.20
2009,06,15,12,33,19.10
2009,06,15,12,34,19.10
2009,06,15,12,35,19.20
2009,06,15,12,36,19.30
2009,06,15,12,37,19.40
2009,06,15,12,38,19.50
2009,06,15,12,39,19.40
2009,06,15,12,40,19.30
2009,06,15,12,41,19.30
2009,06,15,12,42,19.30
2009,06,15,12,43,19.30
2009,06,15,12,44,19.20
2009,06,15,12,45,19.20
2009,06,15,12,46,19.20
2009,06,15,12,47,19.30
2009,06,15,12,48,19.40
2009,06,15,12,49,19.50
2009,06,15,12,50,19.50
2009,06,15,12,51,19.50
2009,06,15,12,52,19.50
2009,06,15,12,53,19.40
2009,06,15,12,54,19.30
2009,06,15,12,55,19.20
2009,06,15,12,56,19.10
2009,06,15,12,57,19.00
2009,06,15,12,58,19.00
2009,06,15,12,59,19.00
2009,06,15,13,00,19.00
2009,06,15,13,01,19.10
2009,06,15,13,02,19.00
2009,06,15,13,03,18.90
2009,06,15,13,04,18.70
2009,06,15,13,05,18.60
2009,06,15,13,06,18.40
2009,06,15,13,07,18.40
2009,06,15,13,08,18.30
2009,06,15,13,09,18.20
2009,06,15,13,10,18.20
2009,06,15,13,11,18.30
2009,06,15,13,12,18.40
2009,06,15,13,13,18.70
2009,06,15,13,14,18.90
2009,06,15,13,15,19.00
2009,06,15,13,16,19.10
2009,06,15,13,17,19.20
2009,06,15,13,18,19.30
2009,06,15,13,19,19.40
2009,06,15,13,20,19.30
2009,06,15,13,21,19.30
2009,06,15,13,22,19.20
2009,06,15,13,23,19.20
2009,06,15,13,24,19.20
2009,06,15,13,25,19.30
2009,06,15,13,26,19.40
2009,06,15,13,27,19.50
2009,06,15,13,28,19.50
2009,06,15,13,29,19.40
2009,06,15,13,30,19.30
2009,06,15,13,31,19.20
2009,06,15,13,32,19.10
2009,06,15,13,33,19.00
2009,06,15,13,34,19.00
2009,06,15,13,35,18.90
2009,06,15,13,36,18.90
2009,06,15,13,37,18.90
2009,06,15,13,38,18.80
2009,06,15,13,39,18.90
2009,06,15,13,40,18.90
2009,06,15,13,41,18.90
2009,06,15,13,42,18.90
2009,06,15,13,43,18.90
2009,06,15,13,44,18.90
2009,06,15,13,45,18.90
2009,06,15,13,46,18.90
2009,06,15,13,47,18.90
2009,06,15,13,48,19.00
2009,06,15,13,49,19.10
2009,06,15,13,50,19.30
2009,06,15,13,51,19.50
2009,06,15,13,52,19.70
2009,06,15,13,53,19.90
2009,06,15,13,54,20.10
2009,06,15,13,55,20.10
2009,06,15,13,56,20.20
2009,06,15,13,57,20.20
2009,06,15,13,58,20.10
2009,06,15,13,59,20.10
2009,06,15,14,00,20.10
2009,06,15,14,01,20.10
2009,06,15,14,02,20.10
2009,06,15,14,03,20.00
2009,06,15,14,04,19.90
2009,06,15,14,05,19.90
2009,06,15,14,06,19.90
2009,06,15,14,07,20.00
2009,06,15,14,08,20.10
2009,06,15,14,09,20.20
2009,06,15,14,10,20.30
2009,06,15,14,11,20.40
2009,06,15,14,12,20.40
2009,06,15,14,13,20.50
2009,06,15,14,14,20.50
2009,06,15,14,15,20.50
2009,06,15,14,16,20.50
2009,06,15,14,17,20.60
2009,06,15,14,18,20.40
2009,06,15,14,19,20.10
2009,06,15,14,20,19.80
2009,06,15,14,21,19.70
2009,06,15,14,22,19.70
2009,06,15,14,23,19.70
2009,06,15,14,24,19.60
2009,06,15,14,25,19.40
2009,06,15,14,26,19.30
2009,06,15,14,27,19.30
2009,06,15,14,28,19.30
2009,06,15,14,29,19.30
2009,06,15,14,30,19.20
2009,06,15,14,31,19.20
2009,06,15,14,32,19.00
2009,06,15,14,33,19.00
2009,06,15,14,34,18.90
2009,06,15,14,35,19.00
2009,06,15,14,36,19.20
2009,06,15,14,37,19.40
2009,06,15,14,38,19.50
2009,06,15,14,39,19.70
2009,06,15,14,40,19.70
2009,06,15,14,41,19.70
2009,06,15,14,42,19.60
2009,06,15,14,43,19.60
2009,06,15,14,44,19.60
2009,06,15,14,45,19.70
2009,06,15,14,46,19.90
2009,06,15,14,47,20.00
2009,06,15,14,48,20.00
2009,06,15,14,49,20.00
2009,06,15,14,50,20.00
2009,06,15,14,51,19.90
2009,06,15,14,52,19.90
2009,06,15,14,53,19.90
2009,06,15,14,54,20.00
2009,06,15,14,55,20.10
2009,06,15,14,56,20.30
2009,06,15,14,57,20.50
2009,06,15,14,58,20.60
2009,06,15,14,59,20.70
2009,06,15,15,00,20.80
2009,06,15,15,01,20.70
2009,06,15,15,02,20.60
2009,06,15,15,03,20.50
2009,06,15,15,04,20.40
2009,06,15,15,05,20.30
2009,06,15,15,06,20.20
2009,06,15,15,07,20.20
2009,06,15,15,08,20.10
2009,06,15,15,09,20.10
2009,06,15,15,10,20.10
2009,06,15,15,11,20.10
2009,06,15,15,12,20.20
2009,06,15,15,13,20.30
2009,06,15,15,14,20.30
2009,06,15,15,15,20.10
2009,06,15,15,16,20.00
2009,06,15,15,17,19.80
2009,06,15,15,18,19.70
2009,06,15,15,19,19.60
2009,06,15,15,20,19.60
2009,06,15,15,21,19.60
2009,06,15,15,22,19.60
2009,06,15,15,23,19.70
2009,06,15,15,24,19.70
2009,06,15,15,25,19.60
2009,06,15,15,26,19.70
2009,06,15,15,27,19.70
2009,06,15,15,28,19.70
2009,06,15,15,29,19.70
2009,06,15,15,30,19.70
2009,06,15,15,31,19.80
2009,06,15,15,32,19.90
2009,06,15,15,33,20.00
2009,06,15,15,34,20.10
2009,06,15,15,35,20.10
2009,06,15,15,36,20.10
2009,06,15,15,37,20.10
2009,06,15,15,38,20.20
2009,06,15,15,39,20.30
2009,06,15,15,40,20.40
2009,06,15,15,41,20.40
2009,06,15,15,42,20.50
2009,06,15,15,43,20.50
2009,06,15,15,44,20.60
2009,06,15,15,45,20.60
2009,06,15,15,46,20.50
2009,06,15,15,47,20.40
2009,06,15,15,48,20.50
2009,06,15,15,49,20.60
2009,06,15,15,50,20.70
2009,06,15,15,51,20.70
2009,06,15,15,52,20.80
2009,06,15,15,53,20.70
2009,06,15,15,54,20.70
2009,06,15,15,55,20.70
2009,06,15,15,56,20.80
2009,06,15,15,57,20.90
2009,06,15,15,58,21.00
2009,06,15,15,59,21.20
2009,06,15,16,00,21.30
2009,06,15,16,01,21.50
2009,06,15,16,02,21.60
2009,06,15,16,03,21.70
2009,06,15,16,04,21.80
2009,06,15,16,05,21.60
2009,06,15,16,06,21.60
2009,06,15,16,07,21.60
2009,06,15,16,08,21.60
2009,06,15,16,09,21.60
2009,06,15,16,10,21.50
2009,06,15,16,11,21.60
2009,06,15,16,12,21.80
2009,06,15,16,13,21.90
2009,06,15,16,14,22.00
2009,06,15,16,15,22.10
2009,06,15,16,16,22.20
2009,06,15,16,17,22.20
2009,06,15,16,18,22.20
2009,06,15,16,19,22.00
2009,06,15,16,20,21.80
2009,06,15,16,21,21.40
2009,06,15,16,22,21.20
2009,06,15,16,23,21.10
2009,06,15,16,24,20.90
2009,06,15,16,25,20.80
2009,06,15,16,26,20.70
2009,06,15,16,27,20.70
2009,06,15,16,28,20.70
2009,06,15,16,29,20.60
2009,06,15,16,30,20.70
2009,06,15,16,31,20.70
2009,06,15,16,32,20.70
2009,06,15,16,33,20.80
2009,06,15,16,34,20.80
2009,06,15,16,35,20.80
2009,06,15,16,36,20.70
2009,06,15,16,37,20.70
2009,06,15,16,38,20.70
2009,06,15,16,39,20.80
2009,06,15,16,40,20.90
2009,06,15,16,41,20.90
2009,06,15,16,42,20.90
2009,06,15,16,43,20.90
2009,06,15,16,44,20.90
2009,06,15,16,45,20.80
2009,06,15,16,46,20.70
2009,06,15,16,47,20.70
2009,06,15,16,48,20.70
2009,06,15,16,49,20.80
2009,06,15,16,50,20.70
2009,06,15,16,51,20.50
2009,06,15,16,52,20.50
2009,06,15,16,53,20.40
2009,06,15,16,54,20.40
2009,06,15,16,55,20.40
2009,06,15,16,56,20.40
2009,06,15,16,57,20.30
2009,06,15,16,58,20.10
2009,06,15,16,59,20.10
2009,06,15,17,00,20.10
2009,06,15,17,01,20.20
2009,06,15,17,02,20.30
2009,06,15,17,03,20.40
2009,06,15,17,04,20.50
2009,06,15,17,05,20.60
2009,06,15,17,06,20.60
2009,06,15,17,07,20.70
2009,06,15,17,08,20.70
2009,06,15,17,09,20.70
2009,06,15,17,10,20.80
2009,06,15,17,11,20.80
2009,06,15,17,12,20.70
2009,06,15,17,13,20.70
2009,06,15,17,14,20.70
2009,06,15,17,15,20.70
2009,06,15,17,16,20.70
2009,06,15,17,17,20.60
2009,06,15,17,18,20.60
2009,06,15,17,19,20.60